Garden City Regional Airport
KGCK : now visible

Airfield :











YOU CAN JOIN US ON...

 
LOGIN :

Register | Disclaimer

   EN    FR    IT 

 









Legend :    VFR   Marginal VFR   IFR   Intensive IFR   Very Intensive IFR
Visi :
Ceiling :
>= 8 km
>= 3000ft
5 to 8 km
1000 to 3000 ft
1500m to 5 km
500 to 1000 ft
800 to 1500m
200 to 500 ft
< 800m
< 200 ft
Symbols :   Thunderstorms  Fog  Heavy snow  Heavy precipitations  Wind > 20 kt






- Airport Elevation : 2891 ft
- IATA code : GCK


KGCK - Garden City Regional

CURRENT METAR :
  • 231754Z 19014G22KT 10SM CLR 32/16 A3005 RMK AO2 SLP136 T03170161 10322 20178 58009

EXPIRED METARs :
  • 231654Z 19019G24KT 10SM CLR 31/16 A3006 RMK AO2 SLP141 T03110161
  • 231554Z 20016G24KT 10SM CLR 29/16 A3007 RMK AO2 SLP144 T02890161

TAF KGCK
Valid from the 23 at 18:00 until the 24 at 18:00 UTC


231741Z 2318/2418 19016G26KT P6SM SCT060
FM240000 17012G22KT P6SM SCT250
FM240300 17008KT P6SM SKC
FM241500 18009KT P6SM SCT150
KZKC FIR / North America



MET'MAP, your aeronautical weather chart ! - Copyright ORBIFLY December 2007 - Disclaimer

ORBIFLY MET'MAP TEAM :

Programming & Development : Alexandra Zaïnal
Concept & original design : Baudouin d'Aumeries
Assistance for programming : Marc-Olivier Méhu
Technical & hardware support : Manuel Goepfert

Contact : metmap@orbifly.com




SOURCES & CREDITS :

   NOAA       Earth
Advisory